Precipitable_Water
1.26 1.29 1.29 1.29 1.25 1.24 1.22 1.17 1.12 1.05 1.03 1.03 0.99 1.00 0.99 1.01 1.05 1.04 1.03 1.04 1.02 0.97 0.94 0.90 0.86 0.82 0.85 0.89 0.95 0.97 0.98 0.99 1.01 1.04 1.04 1.05 1.05 1.04 1.02 1.01 1.01 0.99
1.24 1.29 1.30 1.28 1.25 1.26 1.25 1.19 1.12 1.06 1.02 1.00 0.99 1.01 1.03 1.06 1.08 1.08 1.04 1.03 1.02 0.96 0.94 0.92 0.86 0.83 0.86 0.91 0.95 0.96 0.96 0.97 0.95 1.02 0.99 0.98 1.00 1.01 0.99 0.98 0.97 1.01
1.25 1.27 1.28 1.22 1.18 1.18 1.20 1.18 1.12 1.09 1.04 1.03 1.05 1.05 1.03 1.07 1.07 1.09 1.07 1.05 1.01 0.97 0.94 0.93 0.88 0.86 0.89 0.91 0.93 0.93 0.93 0.94 0.93 0.99 1.01 1.01 1.03 1.01 1.01 1.03 1.04 1.04
1.29 1.32 1.30 1.26 1.23 1.20 1.21 1.14 1.09 1.07 1.04 1.02 1.03 1.05 1.03 1.03 1.05 1.06 1.06 1.06 1.01 0.94 0.92 0.92 0.89 0.88 0.89 0.90 0.90 0.89 0.90 0.91 0.93 0.96 0.95 0.97 0.99 0.99 0.99 1.01 1.02 1.04
1.29 1.31 1.33 1.31 1.26 1.24 1.21 1.10 1.05 1.05 1.02 0.99 1.02 1.05 1.04 1.02 1.02 1.02 1.02 1.02 1.00 0.92 0.90 0.90 0.90 0.88 0.89 0.89 0.89 0.88 0.90 0.90 0.92 0.91 0.89 0.89 0.94 0.95 0.97 0.99 0.98 1.00
1.29 1.32 1.30 1.25 1.21 1.19 1.14 1.05 1.02 1.02 1.02 1.03 1.03 1.08 1.09 1.10 1.05 1.00 0.99 0.99 1.00 0.95 0.91 0.93 0.93 0.92 0.91 0.89 0.89 0.90 0.92 0.90 0.91 0.93 0.93 0.93 0.96 1.01 1.01 1.01 1.01 1.01
1.24 1.29 1.32 1.32 1.26 1.19 1.11 1.02 1.00 1.01 1.02 1.06 1.11 1.13 1.18 1.18 1.11 1.03 1.03 1.05 1.05 1.02 0.96 0.95 0.95 0.93 0.92 0.89 0.88 0.88 0.91 0.91 0.90 0.90 0.91 0.94 0.97 0.98 1.02 1.03 1.04 1.05
1.22 1.29 1.27 1.25 1.22 1.19 1.09 1.01 1.01 1.02 1.07 1.12 1.11 1.17 1.22 1.21 1.17 1.11 1.10 1.13 1.14 1.08 1.04 1.02 1.00 0.95 0.92 0.92 0.90 0.91 0.90 0.91 0.88 0.89 0.90 0.92 0.95 0.96 1.02 1.08 1.10 1.07
1.24 1.27 1.26 1.20 1.15 1.12 1.09 1.06 1.06 1.05 1.10 1.13 1.16 1.22 1.27 1.24 1.20 1.15 1.15 1.17 1.18 1.14 1.09 1.07 1.02 0.97 0.96 0.94 0.93 0.91 0.88 0.88 0.90 0.91 0.92 0.92 0.95 0.98 1.02 1.07 1.05 0.99
1.18 1.22 1.21 1.19 1.14 1.14 1.15 1.19 1.17 1.10 1.12 1.14 1.18 1.25 1.25 1.24 1.23 1.20 1.19 1.19 1.21 1.16 1.12 1.07 1.01 0.98 0.96 0.94 0.92 0.91 0.90 0.89 0.91 0.93 0.95 0.97 0.99 1.00 1.01 1.00 0.95 0.92
1.26 1.27 1.24 1.24 1.22 1.24 1.20 1.19 1.27 1.19 1.19 1.16 1.19 1.25 1.25 1.23 1.24 1.23 1.21 1.20 1.21 1.15 1.12 1.07 1.01 0.97 0.93 0.92 0.94 0.94 0.93 0.93 0.94 0.95 0.96 0.99 1.01 1.00 0.97 0.95 0.96 0.94
1.29 1.32 1.33 1.32 1.32 1.31 1.28 1.26 1.25 1.20 1.22 1.24 1.26 1.26 1.26 1.25 1.24 1.22 1.19 1.19 1.20 1.16 1.14 1.09 1.03 0.99 0.95 0.95 0.96 0.97 0.98 0.98 0.99 0.99 1.00 1.01 1.00 0.97 0.96 0.99 1.00 1.02
1.37 1.36 1.41 1.40 1.40 1.42 1.36 1.33 1.27 1.26 1.30 1.33 1.35 1.32 1.26 1.25 1.25 1.19 1.17 1.17 1.20 1.19 1.15 1.10 1.05 1.01 1.00 1.00 1.00 1.01 1.02 1.02 1.01 1.01 1.01 1.01 1.00 0.99 1.01 1.04 1.07 1.08
1.48 1.46 1.46 1.52 1.57 1.58 1.46 1.41 1.37 1.28 1.31 1.43 1.48 1.38 1.26 1.24 1.22 1.16 1.14 1.17 1.21 1.20 1.17 1.13 1.07 1.03 1.02 1.03 1.04 1.05 1.07 1.06 1.05 1.02 0.99 0.99 0.99 1.02 1.05 1.07 1.09 1.09
1.52 1.57 1.67 1.66 1.70 1.67 1.75 1.50 1.39 1.33 1.33 1.31 1.49 1.44 1.34 1.26 1.24 1.19 1.16 1.15 1.19 1.19 1.16 1.15 1.09 1.04 1.05 1.06 1.06 1.09 1.12 1.10 1.08 1.02 0.98 0.96 0.99 1.02 1.04 1.06 1.06 1.03
1.64 1.69 1.72 1.73 1.80 1.78 1.75 1.64 1.57 1.51 1.45 1.38 1.49 1.47 1.35 1.30 1.26 1.23 1.20 1.18 1.19 1.19 1.19 1.17 1.10 1.08 1.10 1.13 1.14 1.14 1.15 1.15 1.13 1.07 1.03 1.01 1.01 1.01 1.00 1.00 0.99 1.00
1.67 1.71 1.71 1.81 1.88 1.83 1.70 1.63 1.51 1.42 1.47 1.53 1.52 1.48 1.44 1.37 1.30 1.24 1.21 1.21 1.21 1.19 1.18 1.16 1.13 1.13 1.14 1.16 1.18 1.20 1.21 1.19 1.16 1.12 1.10 1.07 1.02 0.98 0.97 1.01 1.02 1.03
1.56 1.63 1.71 1.86 1.88 1.75 1.73 1.54 1.44 1.39 1.41 1.45 1.53 1.52 1.50 1.49 1.41 1.30 1.18 1.17 1.20 1.22 1.20 1.18 1.17 1.18 1.18 1.19 1.22 1.24 1.25 1.24 1.21 1.17 1.15 1.11 1.06 1.05 1.06 1.06 1.05 1.02
1.51 1.54 1.56 1.79 1.80 1.69 1.67 1.61 1.56 1.45 1.39 1.33 1.36 1.44 1.48 1.50 1.53 1.39 1.14 1.18 1.21 1.21 1.20 1.22 1.22 1.23 1.22 1.22 1.24 1.26 1.27 1.28 1.27 1.25 1.19 1.13 1.10 1.08 1.08 1.10 1.05 0.98
1.48 1.50 1.56 1.73 1.73 1.61 1.54 1.50 1.47 1.38 1.33 1.33 1.33 1.37 1.40 1.41 1.38 1.35 1.30 1.25 1.24 1.26 1.24 1.25 1.25 1.26 1.27 1.28 1.30 1.31 1.31 1.31 1.31 1.29 1.23 1.15 1.10 1.09 1.09 1.09 0.99 0.94
1.57 1.59 1.67 1.70 1.61 1.52 1.40 1.35 1.35 1.33 1.33 1.32 1.35 1.33 1.28 1.28 1.28 1.28 1.33 1.35 1.35 1.31 1.27 1.27 1.28 1.32 1.31 1.31 1.33 1.34 1.35 1.36 1.37 1.34 1.25 1.14 1.09 1.09 1.10 1.05 0.99 0.97
1.55 1.57 1.62 1.62 1.48 1.41 1.34 1.33 1.33 1.32 1.33 1.32 1.28 1.21 1.24 1.30 1.28 1.29 1.23 1.27 1.34 1.35 1.31 1.30 1.32 1.34 1.35 1.35 1.37 1.40 1.41 1.42 1.41 1.35 1.24 1.13 1.08 1.09 1.08 1.03 1.00 0.96
1.51 1.52 1.49 1.41 1.42 1.38 1.33 1.33 1.38 1.35 1.29 1.25 1.14 1.14 1.19 1.24 1.23 1.19 1.26 1.35 1.43 1.44 1.39 1.35 1.34 1.39 1.42 1.42 1.43 1.47 1.49 1.46 1.41 1.33 1.22 1.13 1.09 1.09 1.05 1.02 1.01 1.00
1.41 1.38 1.31 1.33 1.31 1.32 1.37 1.42 1.43 1.39 1.31 1.24 1.15 1.12 1.14 1.22 1.23 1.24 1.31 1.40 1.46 1.47 1.48 1.44 1.41 1.41 1.43 1.43 1.47 1.46 1.46 1.43 1.39 1.29 1.18 1.11 1.08 1.08 1.06 1.03 1.02 1.00
1.26 1.23 1.26 1.29 1.26 1.24 1.26 1.28 1.27 1.29 1.21 1.14 1.14 1.16 1.16 1.18 1.21 1.24 1.29 1.41 1.51 1.51 1.47 1.42 1.40 1.39 1.39 1.43 1.45 1.44 1.43 1.41 1.34 1.23 1.10 1.06 1.04 1.03 1.04 1.02 0.99 0.99
1.21 1.20 1.20 1.17 1.16 1.24 1.19 1.18 1.20 1.14 1.13 1.21 1.22 1.22 1.22 1.24 1.24 1.25 1.28 1.38 1.49 1.53 1.38 1.33 1.34 1.31 1.33 1.39 1.41 1.40 1.40 1.36 1.25 1.11 1.02 1.01 1.01 0.99 0.95 0.95 0.95 0.96
Wind_Speed
15 15 15 15 15 14 14 14 14 14 14 13 13 13 13 13 12 12 12 12 13 13 13 13 13 13 13 14 14 14 14 14 14 15 16 16 16 17 17 18 19 19
17 16 16 16 16 16 16 16 15 15 15 15 15 14 14 14 14 13 13 13 14 14 14 14 14 14 14 14 15 15 15 15 15 16 17 17 17 18 19 19 20 20
18 17 17 17 17 17 17 17 17 17 17 16 16 16 15 15 15 15 15 15 15 16 15 15 15 15 15 15 15 16 16 16 17 17 18 18 18 19 19 20 20 21
19 19 18 18 18 18 18 18 18 18 18 18 17 17 17 16 16 16 16 16 16 16 16 16 16 16 16 16 16 17 17 17 18 19 19 19 19 19 20 20 21 21
20 20 20 19 19 19 19 19 20 20 20 19 19 18 18 18 17 17 17 17 17 17 17 16 17 17 17 17 17 17 17 18 18 19 19 19 19 19 20 20 21 22
22 22 21 21 20 20 20 21 21 21 21 20 20 20 19 19 18 18 18 18 18 18 17 17 17 17 17 18 18 17 17 18 18 18 19 19 20 20 20 21 22 22
23 23 23 22 22 21 22 22 22 21 21 21 21 21 21 20 19 18 18 18 18 18 18 17 17 17 18 18 18 17 18 18 18 18 19 19 20 20 21 21 22 23
25 24 24 23 23 22 22 22 23 22 22 21 21 21 21 20 20 19 18 19 19 18 18 18 18 18 18 18 18 18 18 17 18 18 19 19 20 21 21 22 22 22
26 25 24 24 24 24 22 22 22 22 22 22 22 22 22 21 20 20 19 19 19 19 18 18 18 18 18 18 18 18 18 18 18 19 19 20 20 21 22 22 22 22
27 27 26 25 25 25 24 23 22 23 23 23 23 23 23 22 21 21 20 20 20 20 19 18 18 18 19 19 18 18 18 18 18 19 19 20 21 21 22 22 22 23
29 29 28 28 27 27 27 26 25 24 24 24 24 25 24 23 23 23 22 22 21 21 19 18 19 19 19 19 18 18 18 18 19 19 20 20 21 22 22 22 23 24
30 31 31 31 30 30 30 28 26 25 25 24 25 25 25 24 24 24 24 23 22 21 20 19 19 19 19 19 18 18 18 18 19 19 20 21 21 22 22 23 24 25
31 32 33 34 34 33 32 30 28 27 26 25 25 24 24 24 24 25 24 23 22 21 20 20 20 19 19 18 18 18 18 19 19 20 21 21 22 22 23 24 25 26
31 33 34 35 35 35 34 31 29 28 26 25 25 25 25 25 24 24 24 23 23 22 20 20 20 20 19 18 18 18 19 19 20 21 22 22 23 24 24 25 26 27
31 33 33 34 35 35 35 31 28 26 25 25 26 26 25 25 25 24 23 23 22 22 21 21 21 21 20 19 19 19 20 20 21 21 22 23 23 24 25 25 27 28
30 31 32 34 34 35 35 34 31 28 27 27 27 26 26 26 25 24 23 23 23 22 22 22 22 22 21 21 21 21 21 21 21 22 23 23 24 26 26 27 28 29
27 28 30 33 33 31 31 31 30 29 29 28 27 26 26 26 25 25 25 24 24 23 23 23 23 23 23 23 23 23 23 22 22 23 24 25 26 27 28 29 30 30
25 26 27 29 28 24 23 24 25 26 27 27 26 27 27 27 27 26 26 26 25 24 24 24 24 24 25 25 25 25 24 24 24 25 26 27 28 29 29 30 31 31
24 25 25 26 24 22 20 20 21 23 24 25 26 28 29 29 29 27 27 27 26 25 25 25 25 25 26 26 26 26 26 25 26 26 28 29 29 29 30 31 32 32
24 25 26 26 25 23 20 20 20 22 24 24 26 28 30 30 29 28 27 27 26 26 26 25 25 26 27 27 27 27 27 27 27 28 29 29 30 30 31 32 32 32
24 25 26 26 24 21 20 20 22 23 25 26 27 27 28 28 27 27 26 26 26 27 27 26 27 28 28 28 28 28 28 28 28 29 30 30 31 31 32 32 32 32
24 24 24 22 21 21 22 22 23 24 25 27 27 26 26 25 25 25 25 25 26 27 28 28 28 29 29 29 29 29 29 29 29 30 31 31 31 32 32 32 32 32
23 22 20 20 21 23 25 26 27 27 27 27 27 26 25 24 24 25 25 26 26 27 28 29 29 29 29 29 29 29 29 29 30 31 32 31 31 32 32 32 32 32
21 20 20 22 24 25 27 29 30 30 28 27 26 26 24 22 23 25 26 27 27 28 28 28 27 28 28 28 28 28 29 29 30 31 31 31 31 32 32 32 32 32
20 19 21 23 24 25 27 29 29 27 26 25 24 22 22 22 24 25 26 26 27 27 27 26 26 26 27 28 28 28 28 29 30 31 31 31 31 32 32 32 32 32
20 21 23 24 24 25 26 27 26 24 23 23 21 20 21 22 23 24 24 24 24 24 25 25 26 26 27 29 30 29 29 29 30 30 30 31 31 32 32 32 32 31
Wind_Direction
253 254 259 263 265 267 269 271 272 274 277 279 281 284 287 291 294 296 299 303 307 309 309 310 310 310 309 307 307 307 306 305 305 307 309 308 308 308 307 307 307 307
254 255 258 262 264 267 268 270 271 272 275 277 279 282 285 288 291 292 295 299 303 305 306 306 307 307 308 307 306 304 303 303 303 305 307 306 306 307 306 306 306 306
254 255 256 260 263 265 267 269 270 271 272 274 275 278 281 284 287 289 292 294 298 301 302 302 303 304 304 305 303 302 301 301 301 303 305 305 305 305 305 306 305 304
253 254 256 259 262 265 267 269 269 270 270 271 273 275 277 280 282 285 288 290 293 295 297 297 298 300 302 302 302 300 300 301 301 303 304 304 305 305 305 305 304 304
254 255 258 261 264 266 268 269 269 269 269 270 270 272 274 276 279 282 284 286 289 292 293 293 295 298 300 300 299 299 300 302 302 303 304 304 304 304 304 304 304 304
255 258 260 263 266 268 268 268 269 269 269 270 270 271 273 275 277 279 281 283 287 289 290 290 292 295 297 298 297 297 299 301 302 303 304 304 304 304 304 304 304 305
256 258 260 262 265 268 268 268 269 269 269 271 271 272 273 274 275 277 279 281 284 287 288 288 289 291 295 297 295 295 297 300 302 304 304 305 305 304 304 304 305 305
256 258 260 262 263 265 267 268 269 268 269 270 270 272 273 273 273 275 278 280 282 284 285 286 286 289 293 295 294 294 297 299 302 304 305 305 305 305 305 306 306 306
257 259 261 261 261 262 265 268 269 268 268 269 269 272 273 271 270 272 275 278 280 281 284 284 284 286 291 293 293 294 295 298 302 304 305 305 306 306 306 307 308 308
257 259 260 260 260 261 262 265 268 268 269 270 270 272 272 269 268 270 272 275 278 279 281 283 283 285 289 291 292 293 294 297 301 304 305 305 306 307 308 308 309 309
258 260 261 261 261 261 261 264 266 268 270 272 271 271 271 268 268 269 269 272 276 277 278 282 283 283 286 289 291 292 293 296 300 303 304 304 306 308 308 308 309 309
260 261 262 262 261 261 261 263 265 267 269 272 273 272 271 269 268 267 268 270 273 274 275 279 281 282 285 288 289 291 293 295 299 302 303 304 305 307 307 308 308 308
263 264 264 263 262 261 261 262 265 266 267 271 274 273 271 269 267 266 267 269 270 271 272 276 279 281 284 286 287 290 293 294 297 300 301 303 304 305 306 306 306 307
267 267 266 265 265 262 260 261 263 264 266 269 272 274 273 269 267 266 265 266 268 268 269 274 277 280 283 284 287 290 293 294 296 299 301 302 303 304 305 305 306 307
270 270 269 269 268 264 259 259 259 262 268 272 271 272 272 268 265 265 263 264 265 265 267 272 275 278 280 281 285 290 292 293 295 299 301 302 303 305 306 306 307 308
274 274 273 273 272 268 262 257 256 263 271 273 271 271 271 267 263 262 262 263 263 263 267 272 274 275 277 278 284 288 290 291 294 297 300 302 303 306 308 308 308 308
276 278 280 279 278 277 269 258 257 266 273 273 272 270 268 266 262 259 260 262 262 262 267 271 272 273 275 278 283 286 287 289 291 295 299 302 303 305 307 308 308 308
276 281 286 287 287 287 278 263 262 272 275 273 273 272 269 266 262 259 259 260 260 263 268 270 272 273 275 278 282 283 284 287 289 294 299 302 303 305 307 308 308 308
278 281 285 288 289 289 284 274 271 277 278 276 276 276 272 267 262 260 259 257 258 264 268 270 272 274 275 277 280 281 283 285 288 293 298 301 303 304 306 307 307 307
281 283 284 286 286 284 283 281 280 283 285 284 282 280 275 268 261 258 256 256 259 265 268 271 273 275 276 277 279 280 282 284 286 291 297 301 302 304 306 307 307 307
283 285 287 287 285 281 282 284 285 287 290 291 289 285 280 269 259 254 254 256 262 266 267 270 274 275 276 278 279 280 281 283 286 290 296 299 301 303 305 306 307 306
284 287 288 287 284 284 286 287 287 289 293 294 291 287 282 271 258 252 253 258 264 267 267 270 274 275 276 278 279 281 281 282 285 290 294 297 300 302 304 306 307 307
286 288 289 288 287 289 290 287 285 287 292 293 290 285 279 268 256 253 258 263 267 269 270 272 274 274 276 278 281 283 283 283 285 289 293 295 298 301 303 306 307 307
283 284 286 289 290 293 293 288 284 285 290 291 289 283 273 262 257 260 266 269 270 271 272 273 274 275 277 279 282 284 284 284 286 290 292 295 298 300 303 305 306 306
278 281 286 289 293 297 298 292 287 287 291 291 289 282 271 264 264 268 272 273 273 272 271 271 274 277 279 280 282 284 285 286 288 290 293 295 298 300 303 305 305 305
275 281 286 288 293 300 300 295 291 292 293 291 287 282 275 271 272 274 275 274 272 271 271 272 275 279 279 278 279 282 285 286 288 291 293 296 298 301 302 303 304 304